Location: Corocito
(10.1894°N, 67.0986°W)
Time: 09:48:56
(UTC+00:00)

SAR-Lupe-2 - Pass Details

Date: 29 May 2024
Orbit: 481 x 482 km, 98.1° (Epoch: 05 September)

Event Time Altitude Azimuth Distance (km) Brightness Sun altitude
Rises 23:07:06 0° 167° (SSE) 2,530 6.8 -5.6°
Reaches altitude 10° 23:09:09 10° 166° (SSE) 1,651 5.9 -6.1°
Maximum altitude 23:12:42 85° 79° (ENE) 485 3.5 -6.9°
Drops below altitude 10° 23:16:15 10° 350° (N) 1,650 6.8 -7.6°
Sets 23:18:18 0° 349° (N) 2,529 7.7 -8.1°
